Simultaneous Nadir Overpasses (SNOs) Predictions

Prediction of SNOs between AURA and NPP Satellite Orbit:

Table of predicted SNOs for the next 14.0 days since TLE Epoch: 1/1/2016
Index Date (AURA) Time (AURA) Lat,Lon (AURA) SZA (AURA ) Date (NPP) Time (NPP) Lat,Lon (NPP) SZA (NPP ) Distance(km) Time Diff (sec)
1 01/04/2016 02:02:34 -79.33,-134.95 64.77 01/04/2016 02:02:18 -79.34,-134.83 64.79 2.72 16
2 01/04/2016 02:51:54 79.55, 34.22 114.92 01/04/2016 02:52:56 79.56, 34.25 114.86 0.80 62
3 01/06/2016 17:29:41 79.05, 171.55 115.38 01/06/2016 17:28:34 79.05, 171.51 115.44 1.07 67
4 01/06/2016 18:19:00 -79.37, -18.76 65.07 01/06/2016 18:19:10 -79.37, -18.79 65.07 0.66 10
5 01/09/2016 09:46:06 79.12, -72.13 115.00 01/09/2016 09:45:25 79.12, -72.23 115.05 2.32 41
6 01/09/2016 10:35:25 -79.44, 97.60 65.45 01/09/2016 10:36:01 -79.44, 97.50 65.46 2.09 36
7 01/12/2016 02:02:28 79.25, 44.60 114.47 01/12/2016 02:02:13 79.25, 44.52 114.50 1.68 15
8 01/12/2016 02:51:48 -79.53,-145.88 65.93 01/12/2016 02:52:50 -79.53,-145.95 65.96 1.57 62
9 01/14/2016 17:29:31 -79.15, -7.80 65.78 01/14/2016 17:28:24 -79.16, -7.71 65.75 1.99 67




NCC Satellite Simultaneous Nadir Overpasses (SNOs) Prediction Service
